Погода Горно-Алтайск

Погода Горно-Алтайск : погода сейчас, прогноз погоды и архив. Всё, что Вы хотите узнать о погоде Горно-Алтайск!

Хотите узнать прогноз погоды Горно-Алтайск? Тогда Вам сюда: Погода Горно-Алтайск

Поиск расширенной информации на нашем сайте:

Другие новости

Новости СМИ2

Главная страница сайта

Новости сайта

03.07.2017

Напоминаем, что на нашем специализированном сайте Метеоцентр.Азия вы можете получить высокодетализированные автоматические прогнозы погоды по пунктам России, СНГ и мира в авиационном формате (включающие направление и скорость ветра, видимость, явления погоды, количество и форму облачности, нижнюю и верхнюю границу облачности).


Погода Горно-Алтайск - сегодня

Время (UTC), дата Ветер
(°,м/с) 
Видим.   Явления Облачность Т
(°С)
Тd
(°С)
f(%) Тe
(°С)
Pmin
(гПа)
dP
(гПа)
Po
(мм)
O2
(г/м3)
Тmin Tmax R s Состояние
почвы
09 21.02.18 тихо ()   10 км    10/0 верхняя 
[Ci fib]
-0.3 -12.2 40 -0  1024.8  -1.7  741  300           
12 21.02.18 тихо ()   9000 м    ясно 
-5 -10.9 63 -5  1023.5  -1.8  740  305           
15 21.02.18 нст () 9000 м    ясно 
-9.9 -14.1 71 -10  1022.1  -2.1  738  310    +3.3       
18 21.02.18 230 (ЮЗ) 9000 м    ясно 
-9.9 -13.1 77 -12  1020  -2  737  309           
21 21.02.18 270 (З) 10 км    ясно 
-8.9 -13 72 -11  1018.1  -1.7  735  307           
00 22.02.18 210 (ЮЗ) 10 км    ясно 
-3.9 -11.1 57 -6  1018.5  1.1  736  302           
03 22.02.18 270 (З) 9000 м    9/5 1500 м средняя, верхняя 
[Sc|Ac trans|Ci fib]
-5.1 -11.2 62 -6  1020.4  1.7  738  304  -12         
06 22.02.18 010 (С) 6000 м  слаб. ливневой снег  10/10 1000 м кучево-дожд. 
[Cb cap]
-2.7 -6.8 73 -4  1020.8  0.7  738  301           
09 22.02.18 260 (З) 1900 м  ливневой снег  10/10 300 м кучево-дожд. 
[Cb cap]
-2.7 -3.2 96 -2  1021.6  0.8  739  301           
12 22.02.18 310 (СЗ) 10 км    ясно 
-3.3 -4.8 89 -5  1023.9  2.1  740  302           
15 22.02.18 270 (З) 10 км    ясно 
-6.7 -8.9 84 -9  1027  2.5  742  307    -1.9       
18 22.02.18 нст () 10 км    ясно 
-8.6 -11.3 81 -8  1029.2  1.9  744  310           
21 22.02.18 230 (ЮЗ) 10 км    ясно 
-12.1 -12.7 95 -12  1030.4  0.6  744  315           
00 23.02.18 230 (ЮЗ) 10 км    ясно 
-16.3 -17.7 89 -16  1030.5  -0.5  744  320           
03 23.02.18 200 (Ю) 7000 м    ясно 
-15.8 -17.2 89 -16  1030.1  -0.3  743  319  -18.5         
06 23.02.18 тихо ()   9000 м    9/3 1500 м средняя, верхняя 
[Sc|Ac trans|Ci fib]
-9.3 -10.6 90 -9  1028.9  -0.2  743  311           
09 23.02.18 060 (СВ) 10 км    8/0 средняя, верхняя 
[Ac trans|Ci fib]
-5.4 -10.5 67 -7  1026.7  -1.6  742  306           
12 23.02.18 тихо ()   10 км    ясно 
-6.8 -10.5 75 -7  1025.4  -1.4  741  307           
15 23.02.18 250 (З) 4400 м    ясно 
-9.7 -11.9 84 -11  1025.7  -0.2  741  311    -2.2       
18 23.02.18 250 (З) 8000 м    ясно 
-13.8 -14.7 93 -17  1025.5  -0.7  740  315           
21 23.02.18 280 (З) 9000 м    ясно 
-13.9 -14.9 92 -16  1024.1  -1.4  739  315           
00 24.02.18 250 (З) 10 км    ясно 
-11.6 -12.8 91 -14  1022.7  -1  739  312           
03 24.02.18 тихо ()   6000 м    10/6 1500 м средняя 
[Sc|Ac und]
-9.6 -11.3 87 -10  1021.8  -0.6  738  309  -14.2         
06 24.02.18 тихо ()   9000 м  слаб. ливневой снег  10/8 1000 м кучево-дожд., средняя 
[Cb calv|Ac und]
-4.6 -7.7 79 -5  1020.7  -0.4  738  303           
09 24.02.18 тихо ()   2600 м  слаб. ливневой снег  10/8 600 м кучево-дожд., средняя 
[Cb calv|Ac und]
-2.6 -4.2 89 -3  1019.5  -0.8  737  300           
Время (UTC), дата Ветер
(°,м/с) 
Видим.   Явления Облачность Т
(°С)
Тd
(°С)
f(%) Тe
(°С)
Pmin
(гПа)
dP
(гПа)
Po
(мм)
O2
(г/м3)
Тmin Tmax R s Состояние
почвы

Для получения пояснительной информации подведите курсор к названию столбца.

ПОГОДА Горно-Алтайск - архив

Всё, что Вы хотите узнать о погоде Горно-Алтайск - удобно и подробно!

Выберите нужную дату (начиная с 1 января 2015* года) и нажмите кнопку "Найти".
Будут отображены архивные сводки погоды по пункту Горно-Алтайск, начиная с указанной даты.


Отображать данные в формате CSV (для использования в таблицах Excel)


Внимание! Наш архив погоды предназначен исключительно для личного некоммерческого использования в познавательных целях. Если Вам необходимы официальные справки о состоянии погоды (для производственных, юридических, коммерческих и т.п. целей), обращайтесь в органы Росгидромета.

*Примечание: данная дата относится к архиву по метеостанциям СССР (Россия, СНГ, Балтия).
Архив по метеостанциям Зарубежной Европы и Азии (кроме Китая) хранится 10 дней, по другим регионам земного шара (Китай, Африка, Америка, Австралия, Океания) - 1 день.

Горно-Алтайск - район местоположения метеостанции


Название, широта, долгота, высота метеостанции:
Горно-Алтайск 52°ш. 85.9°д. 286 м над ур. моря [Российская Федерация]

Дополнительная информация

В oтличие oт бoльшинства пoгoдных сайтoв мы публикуем пoдрoбную метеoинфoрмацию в детальнoм прoфессиoнальнoм фoрмате.

Характеристики температуры и влажнoсти вoздуха измеряются на высoте 2 м в тени вдали oт зданий и деревьев.
Скoрoсть ветра измеряется на высoте 10 м (на урoвне рoста челoвека скoрoсть ветра ниже в 1.5-2 раза). Если метеoстанция нахoдится в гoрoде или в лесу, тo скoрoсть ветра занижена на 2-4 м/с пo сравнению с oткрытым местoм. Скoрoсть ветра над акватoриями крупных рек и oзёр, а также на вершинах хoлмoв на 2-5 м/с выше, чем в oбычных услoвиях.
Атмoсфернoе давление в разных тoчках местнoсти мoжет значительнo oтличаться oт давления на метеoстанции, в зависимoсти oт услoвий рельефа (при пoдъёме на 10 м давление пoнижается примернo на 1 мм рт.ст.).